星链-32092 (STARLINK-32092 )

导读

STARLINK-32092是美国于2024年5月8日发射的星链系列卫星,星链是SpaceX打造的低轨卫星互联网项目,该卫星旨在为全球提供高速低延迟宽带网络服务,覆盖偏远网络盲区,同时支持车载、机载、船载等移动场景联网,进一步扩充星链星座规模,提升星座服务覆盖密度与容量。

基本信息
目录编号:
59700
目录名称:
STARLINK-32092
国际标识:
2024-086U
轨道中心:
EARTH
卫星名称:
星链-32092
卫星全名:
星链-32092 (STARLINK-32092 )
卫星状态:
在轨 (已飞行850 天)
发射日期:
2024-05-08 UTC
国别 :
美国 (US)
星等 :
--
轨道信息
数据来源 国际轨道数据 AOE轨道数据
星历时间 2026-09-05T07:55:34+0800
13小时前
查看轨道信息
2026-09-01T23:00:00+0800
3天前
查看轨道信息
半长轴 6861.197km 6861.19km
偏心率 0.0001317 0.0002318
轨道倾角 43.004° 43.001°
近地点辐角 267.029° 245.472°
升交点赤经 127.367° 146.413°
平近点角 93.041° 269.696°
近地点 482.156km 481.462km
远地点 483.964km 484.644km
周期 94.267分钟 94.267分钟
每日圈数 15.275764 15.27579
详细信息
固有亮度:
5
最大亮度:
1.5
卫星平台:
Starlink v2.0 mini
覆盖范围:
全球
运营商:
太空探索技术公司
运营商所在国:
美国
制造商(研发单位):
太空探索技术公司
制造商所在国:
美国
使用方式:
暂无
卫星简介
星链(Starlink)计划是由太空探索技术公司(SpaceX)提出的一个巨型低轨卫星互联网星座项目,计划在2019年至2024年间在太空搭建由约1.2万颗卫星组成的“星链”网络,其中1584颗将部署在地球上空550千米处的近地轨道,并从2020年开始工作。该卫星仍在工作。
2D轨道图
3D轨道图
轨道高度分析图
轨道倾角分析图
轨道综合分析图
查看轨道综合分析图
交会数据列表
事件ID 空间交会对象 最接近时刻(TCA) 交会距离 交会风险概率(CRP) 交会风险指数(CRI) 操作
CDM_260828-190505-970006-214621
2026-08-28T
19:05:19+0000
0.338 km
远距离
3.170983E-4 高风险 0.85
CDM_260907-125405-970006-214621
2026-09-07T
12:54:38+0000
0.537 km
远距离
1.176668E-4 高风险 0.76
CDM_260903-132104-691205-970023
KSM1-A (46912)
2026-09-03T
13:21:19+0000
0.839 km
远距离
3.639455E-5 中风险 0.66
CDM_260907-142805-970006-214621
2026-09-07T
14:28:47+0000
1.470 km
极远距离
4.669269E-6 低风险 0.48
CDM_260907-185305-970006-656621
2026-09-07T
18:53:16+0000
1.910 km
极远距离
1.867632E-6 低风险 0.4
CDM_260828-203905-970006-214621
2026-08-28T
20:39:28+0000
2.229 km
极远距离
1.504483E-6 低风险 0.39
CDM_260903-030904-691205-970022
KSM1-A (46912)
2026-09-03T
03:09:18+0000
2.404 km
极远距离
1.4666E-6 低风险 0.38
CDM_260903-114704-691205-970022
KSM1-A (46912)
2026-09-03T
11:47:10+0000
2.448 km
极远距离
1.418259E-6 低风险 0.38
CDM_260907-112005-970006-214621
2026-09-07T
11:20:28+0000
2.464 km
极远距离
1.240874E-6 低风险 0.37